Regional Weather Roundup
Issued by NWS

Home | Current Version | Previous Version | Graphics & Text | Print | Product List | Glossary On
Versions: 1 2 3 4 5 6 7 8 9 10 11 12 13 14 15 16 17 18 19 20 21 22 23 24 25 26 27 28 29 30 31 32 33 34 35 36 37 38 39 40 41 42 43 44 45 46 47 48 49 50
000
ASUS43 KMKX 250027
RWRWI

WISCONSIN REGIONAL WEATHER ROUNDUP
NATIONAL WEATHER SERVICE MILWAUKEE/SULLIVAN WI
700 PM CDT SUN MAY 24 2015

NOTE: "FAIR" INDICATES FEW OR NO CLOUDS BELOW 12,000 FEET WITH NO
SIGNIFICANT WEATHER AND/OR OBSTRUCTIONS TO VISIBILITY.

WIZ001-002-006>008-014>016-023>028-250100-
NORTHWEST WISCONSIN

CITY           SKY/WX    TMP DP  RH WIND       PRES   REMARKS
SUPERIOR ARPT  CLOUDY    67  53  61 S9        29.95S
ASHLAND        CLOUDY    68  54  60 S6        29.97S
6HR MIN TEMP:  66; 6HR MAX TEMP:  76;

HAYWARD        LGT RAIN  60  56  86 E6        29.97F FOG
6HR MIN TEMP:  60; 6HR MAX TEMP:  74; 6HR PCP:  0.12;

SIREN          LGT RAIN  59  58  94 E7        29.94F
CUMBERLAND     LGT RAIN  57  54  88 E7        29.94F
RICE LAKE      LGT RAIN  58  56  90 E8        29.95F
CHETEK         RAIN      58  57  97 E7        29.94F
LADYSMITH      LGT RAIN  59  57  93 E6        29.99F
EAU CLAIRE     HVY RAIN  58  56  93 E9        29.92F FOG
MENOMONIE      RAIN      59  58  97 E10       29.91F
6HR MIN TEMP:  59; 6HR MAX TEMP:  61; 6HR PCP:  0.57;

NEW RICHMOND   LGT RAIN  58  58 100 E9        29.91F
OSCEOLA        LGT RAIN  60  60 100 E12       29.94F
$$

WIZ003>005-009-010-017-018-250100-
NORTH CENTRAL WISCONSIN

CITY           SKY/WX    TMP DP  RH WIND       PRES   REMARKS
MANITOWISH WTR LGT RAIN  58  57  95 S7        30.02S
ARBOR VITAE    RAIN      59  57  92 SE5       30.02F
WOODRUFF       RAIN      59  57  92 SE5       30.02F
RHINELANDER    LGT RAIN  57  55  93 E5        30.02F FOG
6HR MIN TEMP:  57; 6HR MAX TEMP:  73; 6HR PCP:  0.15;

EAGLE RIVER    RAIN      58  56  94 CALM      30.03S
LAND O LAKES   CLOUDY    64  52  65 S6        30.03S
PHILLIPS       RAIN      57  56  96 E6        29.99F
TOMAHAWK       LGT RAIN  56  55  94 E3        30.01F
MEDFORD        RAIN      56  55  96 E5        29.98S
MERRILL        LGT RAIN  58  57  99 E8        30.01F
$$

WIZ029-030-035-036-043>047-250100-
CENTRAL WISCONSIN

CITY           SKY/WX    TMP DP  RH WIND       PRES   REMARKS
WAUSAU         RAIN      57  55  93 SE13      29.97F FOG
6HR MIN TEMP:  57; 6HR MAX TEMP:  63; 6HR PCP:  0.29;

MOSINEE        RAIN      55  55 100 E9        29.99F
MARSHFIELD     LGT RAIN  58  55  90 SE13G21   29.95F FOG
6HR MIN TEMP:  58; 6HR MAX TEMP:  61; 6HR PCP:  0.33;

STEVENS POINT  RAIN      55  54  97 E6        30.00F
WAUPACA        HVY RAIN  58  58  98 E6        30.01F
WAUTOMA        LGT RAIN  57  57 100 NE6       29.99F FOG
WISC RAPIDS    LGT RAIN  57  54  89 SE13      29.97F
6HR MIN TEMP:  57; 6HR MAX TEMP:  61; 6HR PCP:  0.66;

CAMP DOUGLAS   CLOUDY    57  57 100 E16       29.92F
$$

WIZ011>013-019>022-031-037>040-048>050-250100-
NORTHEAST WISCONSIN

CITY           SKY/WX    TMP DP  RH WIND       PRES   REMARKS
ANTIGO         LGT RAIN  56  55  97 SE7       30.03F
SHAWANO        RAIN      60  57  88 SE6       30.03F
OCONTO         CLOUDY    58  58 100 SE5       30.04F
STURGEON BAY   CLOUDY    55  50  82 SE6       30.06F
6HR MIN TEMP:  55; 6HR MAX TEMP:  68;

GREEN BAY      HVY RAIN  57  55  93 SE12      30.02F FOG
6HR MIN TEMP:  57; 6HR MAX TEMP:  69; 6HR PCP:  0.37;

MANITOWOC      HVY RAIN  54  54 100 SE8       30.04F FOG
APPLETON       LGT RAIN  55  55 100 E9        30.00F FOG
CLINTONVILLE   HVY RAIN  57  55  94 E3        30.01F
OSHKOSH        RAIN      57  54  89 SE12G21   29.97F FOG
6HR MIN TEMP:  57; 6HR MAX TEMP:  62; 6HR PCP:  0.66;

$$

WIZ032>034-041-042-053>061-250100-
SOUTHWEST WISCONSIN

CITY           SKY/WX    TMP DP  RH WIND       PRES   REMARKS
LA CROSSE      LGT RAIN  61  57  87 SE7       29.88F
6HR MIN TEMP:  60; 6HR MAX TEMP:  62; 6HR PCP:  0.35;

SPARTA         CLOUDY    58  56  92 SE9       29.92S
VIROQUA        CLOUDY    58  58 100 E14G20    29.90F
BOSCOBEL       CLOUDY    62  58  86 NE5       29.88F
6HR MIN TEMP:  60; 6HR MAX TEMP:  62; 6HR PCP:  0.26;

PRAIRIE DU CHI CLOUDY    63  58  86 E6        29.86F
PLATTEVILLE    CLOUDY    63  61  95 E13       29.88F
$$

WIZ056-057-062-063-064-067-068-250100-
SOUTH CENTRAL WISCONSIN

CITY           SKY/WX    TMP DP  RH WIND       PRES   REMARKS
REEDSBURG      CLOUDY    57  56  97 E6        29.93F
BARABOO/DELLS  CLOUDY    56  54  92 E12       29.95F
LONE ROCK      CLOUDY    61  58  90 E13       29.92F
MINERAL POINT  CLOUDY    61  61 100 E12       29.90F FOG
MADISON        LGT RAIN  58  54  86 SE9G18    29.92F FOG
6HR MIN TEMP:  58; 6HR MAX TEMP:  61; 6HR PCP:  0.45;

MIDDLETON      CLOUDY    59  57  94 E8        29.93F
WATERTOWN      CLOUDY    56  56 100 E14       29.95F
MONROE         LGT RAIN  59  59 100 NE13      29.91S
JANESVILLE     LGT RAIN  63  55  77 E13G18    29.90F
$$

WIZ051-052-058>065-066-070>072-250100-
SOUTHEAST WISCONSIN

CITY           SKY/WX    TMP DP  RH WIND       PRES   REMARKS
MILWAUKEE      CLOUDY    53  49  86 E7        29.98F FOG
6HR MIN TEMP:  51; 6HR MAX TEMP:  63; 6HR PCP:  0.11;

WAUKESHA       CLOUDY    54  52  94 E9        29.98F
MILWAUKEE/TIMM NOT AVBL
RACINE         CLOUDY    55  50  83 E10       29.98F
6HR MIN TEMP:  55; 6HR MAX TEMP:  65; 6HR PCP:  0.11;

BURLINGTON     CLOUDY    58  54  86 E8        29.96F
KENOSHA        PTSUNNY   56  53  90 E9        29.96F
6HR MIN TEMP:  56; 6HR MAX TEMP:  65; 6HR PCP:  0.11;

FOND DU LAC    LGT RAIN  57  53  86 SE13      29.96F
6HR MIN TEMP:  57; 6HR MAX TEMP:  62; 6HR PCP:  0.52;

SHEBOYGAN      RAIN      55  53  93 NE8       30.02F FOG
6HR MIN TEMP:  54; 6HR MAX TEMP:  63; 6HR PCP:  0.48;

WEST BEND      DRIZZLE   54  52  94 E8        30.00F
JUNEAU         RAIN      56  53  91 E16G22    29.97F
$$

LSZ147-162-250100-
LAKE SUPERIOR

STATION/POSITION TIME  TEMP    WIND        PRES    WAVE
                       AIR SEA DIR/SP/G            HT/PER
                 (UTC) (F)     (DEG/KT/KT) (MB)    (FT/S)
W MID LAKE BUOY  2250   42 37   30/  6/  6   N/A     0
DEVILS ISLAND    2300           80/  8/ 10   N/A
PORT WING        2340   67     200/  3/  5   N/A
SAXON HARBOR     2340   65     200/  1/  5   N/A
$$

LMZ867-665-643>646-250100-
LAKE MICHIGAN

STATION/POSITION TIME  TEMP    WIND        PRES    WAVE
                       AIR SEA DIR/SP/G            HT/PER
                 (UTC) (F)     (DEG/KT/KT) (MB)    (FT/S)
CHAMBERS ISLAND  2300   57     160/  3/  7   N/A
N MID LAKE BUOY  2250   45 36  220/ 12/ 16   N/A     1/ 4
NORTHPORT PIER   2300   56     140/  6/  9   N/A
SISTER BAY       2317   56     190/ 10/ 11   N/A
KEWAUNEE LAKESHO 2300   48     180/  6/  8   N/A
SHEBOYGAN LAKESH 2300   50      90/ 11/ 12   N/A
PORT WASHINGTON  2300   50      40/  9/ 14   N/A
ATWATER BUOY     2300   48 47   60/  4/  4   N/A
MILWAUKEE LAKESH 2300   49      40/  8/ 10   N/A
S MID LAKE BUOY  2250   48 38  100/ 12/ 12   N/A     1
KENOSHA   LAKESH 2300   52      30/  8/ 10   N/A
$$

TC  - TEMPERATURE IN CELSIUS
VSB - VISIBILITY IN STATUTE MILES
WCI - WIND CHILL INDEX
HX  - HEAT INDEX




USA.gov is the U.S. government's official web portal to all federal, state and local government web resources and services.